Weather History for Salem, IL

Change the Weather History Date:

Wednesday, November 6, 2013

  Actual Average Record
Temperature  
Mean Temperature 50 °F -  
Max Temperature 61 °F 55 °F 73 °F (1965)
Min Temperature 40 °F 35 °F 21 °F (1982)
Degree Days  
Heating Degree Days 14    
Moisture  
Dew Point 48 °F    
Average Humidity 88    
Maximum Humidity 99    
Minimum Humidity 71    
Precipitation  
Precipitation 0.15 in - - ()
Sea Level Pressure  
Sea Level Pressure 30.08 in    
Wind  
Wind Speed 12 mph (WSW)    
Max Wind Speed 18 mph    
Max Gust Speed 28 mph    
Visibility 9 miles    
Events Rain    
Averages and records for this station are not official NWS values.
T = Trace of Precipitation, MM = Missing Value Source: NWS Daily Summary

Daily Weather History Graph

Daily Weather History Graph

Search for Another Location

Airport:

Trip Planner

Search our weather history database for the weather conditions in past years. The results will help you decide how hot, cold, wet, or windy it might be!

Date:

Astronomy

Nov. 06, 2013 Rise Set
Actual Time 6:28 AM CST 4:50 PM CST
Civil Twilight 6:00 AM CST 5:17 PM CST
Nautical Twilight 5:28 AM CST 5:49 PM CST
Astronomical Twilight 4:57 AM CST 6:20 PM CST
Moon 9:42 AM CST (11/6) 7:55 PM CST (11/6)
Length of Visible Light 11h 17m
Length of Day
10h 21m
Waxing Crescent, 14% of the Moon is Illuminated
Nov 6
Waxing Crescent
Nov 9
First Quarter
Nov 17
Full
Nov 25
Last Quarter
Dec 2
New

Hourly Weather History & Observations

Time (CST) Temp. Windchill Dew Point Humidity Pressure Visibility Wind Dir Wind Speed Gust Speed Precip Events Conditions
12:35 AM 59.0 °F - 54.0 °F 83% 30.08 in 10.0 mi South 8.1 mph 16.1 mph N/A Rain Light Rain
12:55 AM 58.5 °F - 54.5 °F 87% 30.07 in 10.0 mi South 6.9 mph - N/A Rain Rain
1:15 AM 59.0 °F - 54.1 °F 84% 30.06 in 10.0 mi South 9.2 mph - N/A Rain Light Rain
1:35 AM 59.0 °F - 54.0 °F 83% 30.04 in 10.0 mi South 9.2 mph - N/A Rain Light Rain
1:55 AM 59.0 °F - 53.6 °F 82% 30.02 in 10.0 mi SSE 10.4 mph 17.3 mph N/A   Light Drizzle
2:15 AM 59.4 °F - 52.9 °F 79% 30.02 in 10.0 mi South 10.4 mph 18.4 mph N/A   Overcast
2:35 AM 59.7 °F - 52.5 °F 77% 30.00 in 10.0 mi South 13.8 mph 19.6 mph N/A Rain Light Rain
2:55 AM 59.9 °F - 52.2 °F 76% 29.99 in 10.0 mi South 11.5 mph 18.4 mph N/A   Mostly Cloudy
3:15 AM 60.8 °F - 51.8 °F 72% 29.99 in 10.0 mi South 13.8 mph 25.3 mph N/A   Overcast
3:35 AM 60.8 °F - 51.6 °F 72% 29.99 in 10.0 mi South 16.1 mph 26.5 mph N/A Rain Light Rain
3:55 AM 61.0 °F - 51.4 °F 71% 29.99 in 10.0 mi South 18.4 mph 27.6 mph N/A Rain Light Rain
4:15 AM 60.1 °F - 51.8 °F 74% 30.00 in 10.0 mi South 15.0 mph 25.3 mph N/A Rain Light Rain
4:35 AM 58.6 °F - 52.7 °F 81% 30.00 in 10.0 mi South 18.4 mph 25.3 mph N/A Rain Light Rain
4:55 AM 58.1 °F - 52.7 °F 82% 30.00 in 10.0 mi South 18.4 mph 24.2 mph N/A Rain Rain
5:15 AM 57.7 °F - 52.9 °F 84% 30.00 in 10.0 mi South 13.8 mph 25.3 mph N/A Rain Light Rain
5:35 AM 56.8 °F - 53.1 °F 87% 29.99 in 10.0 mi South 11.5 mph 17.3 mph N/A Rain Rain
5:55 AM 56.5 °F - 53.1 °F 88% 29.99 in 10.0 mi South 11.5 mph 17.3 mph N/A Rain Light Rain
6:15 AM 56.3 °F - 53.2 °F 89% 29.99 in 10.0 mi South 9.2 mph - N/A Rain Rain
6:35 AM 56.3 °F - 53.1 °F 89% 30.00 in 10.0 mi South 10.4 mph - N/A Rain Light Rain
6:55 AM 56.3 °F - 52.9 °F 88% 29.98 in 10.0 mi South 9.2 mph - N/A Rain Light Rain
7:15 AM 55.9 °F - 52.7 °F 89% 29.98 in 10.0 mi South 9.2 mph - N/A Rain Light Rain
7:35 AM 55.4 °F - 52.7 °F 91% 29.99 in 3.0 mi South 11.5 mph 19.6 mph 0.04 in Rain Heavy Rain
7:55 AM 55.2 °F - 52.9 °F 92% 30.01 in 3.0 mi SSW 16.1 mph 21.9 mph 0.13 in Rain Heavy Rain
8:15 AM 54.9 °F - 53.6 °F 96% 30.02 in 4.0 mi SSW 15.0 mph 19.6 mph 0.02 in Rain Rain
8:35 AM 55.2 °F - 53.6 °F 94% 30.02 in 10.0 mi SSW 15.0 mph 20.7 mph 0.02 in Rain Light Rain
8:55 AM 55.6 °F - 53.8 °F 94% 30.02 in 10.0 mi SSW 17.3 mph 23.0 mph 0.02 in   Drizzle
9:15 AM 55.8 °F - 53.8 °F 93% 30.01 in 10.0 mi SSW 17.3 mph - N/A Rain Light Rain
9:35 AM 56.1 °F - 54.0 °F 92% 29.99 in 10.0 mi South 17.3 mph 26.5 mph N/A   Overcast
9:55 AM 56.5 °F - 54.3 °F 92% 29.96 in 10.0 mi South 17.3 mph 24.2 mph N/A Rain Light Rain
10:15 AM 56.8 °F - 54.0 °F 90% 29.96 in 10.0 mi South 16.1 mph 23.0 mph N/A   Scattered Clouds
10:35 AM 57.2 °F - 54.1 °F 89% 29.98 in 10.0 mi South 17.3 mph 23.0 mph N/A   Overcast
10:55 AM 57.6 °F - 54.7 °F 90% 29.97 in 10.0 mi South 16.1 mph 19.6 mph N/A   Mostly Cloudy
11:15 AM 58.3 °F - 54.9 °F 88% 30.00 in 10.0 mi SSW 13.8 mph 25.3 mph N/A   Mostly Cloudy
11:35 AM 58.1 °F - 54.7 °F 88% 30.01 in 10.0 mi SSW 17.3 mph 21.9 mph N/A   Overcast
11:55 AM 58.1 °F - 54.9 °F 89% 30.00 in 10.0 mi SSW 16.1 mph 24.2 mph N/A   Overcast
12:15 PM 58.1 °F - 55.2 °F 90% 30.00 in 10.0 mi SW 16.1 mph - N/A Rain Light Rain
12:35 PM 58.1 °F - 55.2 °F 90% 30.00 in 10.0 mi West 17.3 mph 24.2 mph N/A   Overcast
12:55 PM 54.9 °F - 52.7 °F 92% 30.01 in 3.0 mi West 12.7 mph 18.4 mph N/A   Overcast
1:15 PM 53.6 °F - 52.3 °F 95% 30.03 in 2.0 mi West 9.2 mph - N/A   Drizzle
1:35 PM 52.9 °F - 52.7 °F 99% 30.05 in 1.8 mi WNW 15.0 mph 18.4 mph N/A   Heavy Drizzle
1:55 PM 51.1 °F - 50.4 °F 97% 30.05 in 1.8 mi NW 12.7 mph 18.4 mph N/A Rain Rain
2:15 PM 50.2 °F - 49.1 °F 96% 30.06 in 2.0 mi WNW 16.1 mph 20.7 mph N/A   Drizzle
2:35 PM 49.3 °F - 48.2 °F 96% 30.07 in 2.5 mi WNW 12.7 mph 19.6 mph N/A   Drizzle
2:55 PM 48.4 °F - 47.1 °F 95% 30.07 in 2.5 mi NW 12.7 mph 18.4 mph N/A   Drizzle
3:15 PM 47.7 °F - 46.0 °F 94% 30.09 in 10.0 mi WNW 10.4 mph 17.3 mph N/A   Overcast
3:35 PM 46.4 °F 39.8 °F 44.6 °F 93% 30.10 in 10.0 mi WNW 16.1 mph 21.9 mph N/A   Overcast
3:55 PM 45.5 °F 39.2 °F 43.7 °F 93% 30.11 in 10.0 mi WNW 13.8 mph 20.7 mph N/A   Light Drizzle
4:15 PM 45.3 °F 38.7 °F 43.0 °F 92% 30.13 in 10.0 mi WNW 15.0 mph 18.4 mph N/A Rain Light Rain
4:35 PM 44.8 °F 38.7 °F 42.3 °F 91% 30.14 in 10.0 mi NW 12.7 mph 23.0 mph N/A Rain Light Rain
4:55 PM 44.6 °F 38.4 °F 42.3 °F 91% 30.15 in 10.0 mi WNW 12.7 mph 17.3 mph N/A Rain Light Rain
5:15 PM 44.6 °F 39.2 °F 42.3 °F 91% 30.15 in 10.0 mi NW 10.4 mph 16.1 mph N/A Rain Light Rain
5:35 PM 44.6 °F 39.2 °F 42.3 °F 91% 30.17 in 10.0 mi WNW 10.4 mph 17.3 mph N/A Rain Light Rain
5:55 PM 44.6 °F 37.8 °F 41.4 °F 88% 30.17 in 10.0 mi NW 15.0 mph 23.0 mph N/A   Overcast
6:15 PM 44.6 °F 38.4 °F 40.1 °F 84% 30.18 in 10.0 mi NW 12.7 mph 20.7 mph N/A   Overcast
6:35 PM 44.6 °F 38.4 °F 39.7 °F 83% 30.19 in 10.0 mi NNW 12.7 mph - N/A   Overcast
6:55 PM 44.6 °F 40.2 °F 39.9 °F 84% 30.19 in 10.0 mi NW 8.1 mph - N/A   Overcast
7:15 PM 44.1 °F 40.8 °F 39.9 °F 85% 30.19 in 10.0 mi NW 5.8 mph - N/A   Overcast
7:35 PM 43.9 °F 39.3 °F 40.1 °F 87% 30.19 in 10.0 mi NW 8.1 mph - N/A   Scattered Clouds
7:55 PM 43.7 °F 39.7 °F 39.9 °F 87% 30.20 in 10.0 mi WNW 6.9 mph - N/A   Clear
8:15 PM 43.7 °F 39.7 °F 39.9 °F 87% 30.20 in 10.0 mi NW 6.9 mph - N/A   Clear
8:35 PM 43.3 °F 39.9 °F 39.9 °F 88% 30.20 in 10.0 mi WNW 5.8 mph - N/A   Clear
8:55 PM 43.3 °F 38.6 °F 39.9 °F 88% 30.21 in 10.0 mi WNW 8.1 mph - N/A   Clear
9:15 PM 43.0 °F 38.8 °F 39.6 °F 88% 30.20 in 10.0 mi NW 6.9 mph - N/A   Clear
9:35 PM 42.1 °F 37.7 °F 39.2 °F 90% 30.22 in 10.0 mi WNW 6.9 mph - N/A   Clear
9:55 PM 41.9 °F 36.3 °F 38.8 °F 89% 30.22 in 10.0 mi WNW 9.2 mph - N/A   Clear
10:15 PM 41.9 °F 36.3 °F 38.7 °F 88% 30.23 in 10.0 mi WNW 9.2 mph - N/A   Clear
10:35 PM 41.5 °F 35.4 °F 38.3 °F 88% 30.23 in 10.0 mi WNW 10.4 mph - N/A   Clear
10:55 PM 41.2 °F 36.0 °F 37.9 °F 88% 30.23 in 10.0 mi WNW 8.1 mph - N/A   Clear
11:15 PM 41.0 °F 35.8 °F 37.8 °F 88% 30.23 in 10.0 mi WNW 8.1 mph - N/A   Clear
11:35 PM 40.6 °F 34.8 °F 37.4 °F 88% 30.23 in 10.0 mi WNW 9.2 mph - N/A   Clear
11:55 PM 40.1 °F 34.1 °F 36.9 °F 88% 30.24 in 10.0 mi WNW 9.2 mph - N/A   Clear